Regional Weather Roundup
Issued by NWS

Home | Current Version | Previous Version | Graphics & Text | Print | Product List | Glossary Off
Versions: 1 2 3 4 5 6 7 8 9 10 11 12 13 14 15 16 17 18 19 20 21 22 23 24 25 26 27 28 29 30 31 32 33 34 35 36 37 38 39 40 41 42 43 44 45 46 47 48 49 50

000
ASUS43 KFSD 230502
RWRSD

WEATHER ROUNDUP FOR SOUTH DAKOTA
NATIONAL WEATHER SERVICE SIOUX FALLS SD
1200 AM CDT WED MAY 23 2018

NOTE: "FAIR" INDICATES FEW OR NO CLOUDS BELOW 12,000 FEET WITH NO
SIGNIFICANT WEATHER AND/OR OBSTRUCTIONS TO VISIBILITY.


SDZ001>005-009-010-012>017-230600-
NORTHWEST AND NORTH CENTRAL SOUTH DAKOTA

CITY           SKY/WX    TMP DP  RH WIND       PRES   REMARKS
BUFFALO          N/A     64  59  83 E9        29.89S
FAITH            N/A     67  62  84 E9        29.93F
MOBRIDGE       CLOUDY    68  59  73 SE8       29.92S
$$

SDZ012>016-024>037-041>051-057-063-072>074-230600-
SOUTHWEST AND SOUTH CENTRAL SOUTH DAKOTA

CITY           SKY/WX    TMP DP  RH WIND       PRES   REMARKS
RAPID CTY ARPT CLOUDY    58  55  90 NW14      29.93F
PIERRE         CLOUDY    68  64  87 E9        29.90F
CUSTER         CLOUDY    54  45  71 N9        30.04F
ELLSWORTH AFB  CLOUDY    57  57 100 NW8       29.92F
PHILIP         CLOUDY    67  58  72 MISG      29.90F
PINE RIDGE     CLOUDY    60  55  83 E6        29.92S
SPEARFISH      MOCLDY    66  45  45 S24G32    29.94F
WINNER         FAIR      68  63  84 SE9       29.91F
$$

SDZ004>011-016>023-039-040-230600-
NORTHEAST SOUTH DAKOTA

CITY           SKY/WX    TMP DP  RH WIND       PRES   REMARKS
ABERDEEN       MOCLDY    68  55  63 E9        29.96S
WATERTOWN      CLOUDY    68  60  75 SE5       29.99S
BROOKINGS      CLOUDY    68  61  78 E7        30.00R
SISSETON         N/A     65  56  72 SE3       29.99S
$$

SDZ017-020-022-023-036>040-048>070-230600-
SOUTHEAST SOUTH DAKOTA

CITY           SKY/WX    TMP DP  RH WIND       PRES   REMARKS
SIOUX FALLS    CLOUDY    70  62  76 SE9       29.98S
HURON          CLOUDY    67  62  84 E6        29.94S
CHAMBERLAIN    MOCLDY    70  70  99 E7        29.93S
MITCHELL       MOCLDY    68  65  90 SE7       29.94S
YANKTON        PTCLDY    68  65  90 E7        29.95R
$$

ABBREVIATIONS USED IN REMARKS
   TC - TEMPERATURE IN CELSIUS
  WCI - WIND CHILL INDEX
   HX - HEAT INDEX
  VSB - VISIBILITY




USA.gov is the U.S. government's official web portal to all federal, state and local government web resources and services.